Regional Weather Roundup
Issued by NWS Cleveland, OH

Home | Current Version | Previous Version | Text Only | Print | Product List | Glossary On
Versions: 1 2 3 4 5 6 7 8 9 10 11 12 13 14 15 16 17 18 19 20 21 22 23 24 25 26 27 28 29 30 31 32 33 34 35 36 37 38 39 40 41 42 43 44 45 46 47 48 49 50
000
ASUS41 KCLE 031102
RWRCLE
OHIO REGIONAL WEATHER ROUNDUP
NATIONAL WEATHER SERVICE CLEVELAND, OH
700 AM EDT SUN MAY 03 2015

NOTE: "FAIR" INDICATES FEW OR NO CLOUDS BELOW 12,000 FEET WITH NO
SIGNIFICANT WEATHER AND/OR OBSTRUCTIONS TO VISIBILITY.

OHZ001>008-015>018-024>027-034-035-043-044-031200-
   NORTHWEST OHIO

CITY           SKY/WX    TMP DP  RH WIND       PRES   REMARKS
DEFIANCE       PTCLDY    50  42  74 S3        30.06R
FINDLAY        PTCLDY    51  42  71 S6        30.06R
TOLEDO EXPRESS CLEAR     44  41  89 CALM      30.05R
TOLEDO EXEC    CLEAR     52  41  66 SW6       30.06R
LIMA           FAIR      50  43  77 SE8       30.07S
$$

OHZ009>014-019>023-028>033-038-089-031200-
   NORTHEAST OHIO

CITY           SKY/WX    TMP DP  RH WIND       PRES   REMARKS
CLE-HOPKINS    PTCLDY    50  41  71 S5        30.09R
CLE-LAKEFRONT  CLEAR     57  41  55 MISG      30.06R
CUY CO. ARPT   PTCLDY    50  45  81 S6        30.07
LORAIN-ELYRIA  CLEAR     50  41  71 SW6       30.08R
ASHTABULA      CLEAR     49  39  68 CALM      30.08R
AKRON-CANTON   PTCLDY    50  41  71 S5        30.09R
WOOSTER        CLEAR     45  40  82 CALM      30.10R
MANSFIELD      CLEAR     51  41  68 S5        30.09R
YOUNGSTOWN     PTCLDY    52  38  58 S5        30.08R
$$

OHZ042-051>053-060>062-070>072-077>081-031200-
  SOUTHWEST OHIO

CITY           SKY/WX    TMP DP  RH WIND       PRES   REMARKS
CINC-COVINGTON MOCLDY    51  45  79 S3        30.10R
CINC-LUNKEN    PTCLDY    44  44 100 CALM      30.12R
HAMILTON       MOCLDY    47  45  93 CALM      30.11R
DAYTON         MOCLDY    55  44  66 S3        30.10R
WRIGHT-PAT AFB MOCLDY    50  45  84 CALM      30.10R
DAYTON GENERAL PTCLDY    53  44  71 S3        30.09R
WILMINGTON     PTCLDY    49  42  77 S3        30.11R
$$

OHZ036-037-039>041-045>050-054>059-063>069-073>076-082>088-031200-
  CENTRAL AND SOUTHEAST OHIO

CITY           SKY/WX    TMP DP  RH WIND       PRES   REMARKS
COLUMBUS       MOCLDY    49  45  86 CALM      30.10R
OSU AIRPORT    PTCLDY    49  43  80 CALM      30.10R HAZE
BOLTON FIELD   MOCLDY    48  44  87 CALM      30.10R
RICKENBACK AFB PTCLDY    46  43  87 CALM      30.10R
NEWARK         CLEAR     45  43  93 CALM      30.10R
MARION         PTCLDY    47  41  80 S3        30.09R
LANCASTER      PTCLDY    45  43  93 CALM      30.11R
ZANESVILLE     CLEAR     44  41  89 CALM      30.11R
NEW PHILLY     CLEAR     46  41  82 CALM      30.11R
$$


USA.gov is the U.S. government's official web portal to all federal, state and local government web resources and services.